User: anonymous   Login
Location: Big Prairie
(40.6673°N, 82.0952°W)
Time: 07:22:38
(UTC+00:00)
Language:

USA 276 - Orbit

View from above orbital plane
View from above orbital plane
View from above satellite
View from above satellite

Ground track
Ground track

The orbit data is extracted from the following two-line orbital elements,

1 42689U 17022A   22135.78896631 0.00043000  00000-0  32273-3 0    02
2 42689  49.9991  66.1743 0007005 197.6100 162.3898 15.71811010    07
Epoch (UTC): 15 May 2022 18:56:06
Eccentricity: 0.0007005
inclination: 49.9991°
perigee height: 349 km
apogee height: 358 km
right ascension of ascending node: 66.1743°
argument of perigee: 197.6100°
revolutions per day: 15.71811010
mean anomaly at epoch: 162.3898°
orbit number at epoch: 0

The dashed part of the orbit path shows where the satellite is in the earth's shadow,  

DLR